PDT,Max TemperatureF,Mean TemperatureF,Min TemperatureF,Max Dew PointF,MeanDew PointF,Min DewpointF,Max Humidity, Mean Humidity, Min Humidity, Max Sea Level PressureIn, Mean Sea Level PressureIn, Min Sea Level PressureIn, Max VisibilityMiles, Mean VisibilityMiles, Min VisibilityMiles, Max Wind SpeedMPH, Mean Wind SpeedMPH, Max Gust SpeedMPH,PrecipitationIn, CloudCover, Events, WindDirDegrees
2013-10-1,56,52,47,47,45,44,93,84,67,30.09,29.97,29.85,20,13,6,17,11,21,0.28,8,Rain,125
2013-10-2,50,48,46,46,46,45,100,91,82,30.19,30.10,30.07,20,12,4,16,9,,0.20,8,Rain,72
2013-10-3,54,46,38,48,44,39,100,88,70,30.47,30.37,30.21,20,18,15,9,3,,0.00,3,Fog,323
2013-10-4,56,48,41,50,46,41,100,88,74,30.49,30.45,30.38,20,15,15,8,4,,0.00,6,,104
2013-10-5,62,56,51,54,49,45,94,79,68,30.38,30.30,30.17,20,16,15,13,6,,0.00,7,,69
2013-10-6,70,58,46,57,51,46,100,81,46,30.15,29.95,29.81,20,16,15,14,4,23,0.00,5,Fog-Rain,122
2013-10-7,59,55,51,52,50,48,94,82,67,29.94,29.88,29.82,20,14,10,18,11,24,0.08,7,Rain,174
2013-10-8,56,52,46,50,46,43,94,80,60,30.12,29.99,29.92,20,16,8,32,17,40,0.00,2,Rain,290
2013-10-9,57,48,40,45,42,37,93,76,51,30.15,30.07,29.96,20,17,15,12,5,,0.00,6,,111
2013-10-10,55,50,46,50,45,43,93,81,64,30.08,29.99,29.93,20,18,15,14,7,,0.00,6,Rain,9
2013-10-11,51,45,39,46,44,39,94,86,76,30.17,30.13,30.08,20,17,15,7,4,,0.00,5,,319
2013-10-12,55,48,41,48,46,41,100,88,76,30.22,30.15,30.09,20,17,15,18,6,24,0.00,4,Fog,329
2013-10-13,54,46,38,48,43,37,93,85,63,30.38,30.32,30.23,20,17,15,9,4,,0.00,1,Fog,9
2013-10-14,54,46,38,50,44,37,100,89,80,30.45,30.41,30.38,20,18,15,10,5,,0.00,1,,336
2013-10-15,53,48,42,49,46,43,100,94,82,30.40,30.33,30.20,20,10,0,8,4,,0.00,6,Fog,171
2013-10-16,54,48,41,50,48,41,100,94,84,30.22,30.19,30.17,15,11,1,17,9,,0.00,2,Fog,314
2013-10-17,51,46,40,50,46,41,100,97,93,30.30,30.27,30.21,20,3,0,10,5,,0.00,3,Fog,317
2013-10-18,48,46,43,48,46,43,100,99,93,30.28,30.24,30.18,4,0,0,7,2,,0.00,8,Fog,290
2013-10-19,50,47,44,48,46,45,100,96,87,30.22,30.19,30.18,10,4,0,10,4,,0.00,8,Fog,310
2013-10-20,50,48,47,47,46,46,97,92,87,30.23,30.21,30.17,10,8,4,7,3,,0.00,8,,326
2013-10-21,49,48,46,48,47,45,100,97,93,30.20,30.17,30.13,7,2,0,6,3,,0.00,8,Fog,306
2013-10-22,48,46,44,48,47,45,100,99,93,30.16,30.11,30.06,1,0,0,7,3,,0.00,8,Fog,304
2013-10-23,50,46,41,50,47,41,100,99,93,30.08,30.05,30.00,15,2,0,7,2,,0.00,7,Fog,278
2013-10-24,49,44,38,50,45,39,100,99,93,30.12,30.06,30.04,15,3,0,7,3,,0.00,4,Fog,240
2013-10-25,50,46,43,49,47,45,100,96,87,30.35,30.25,30.13,15,4,0,10,6,,0.00,8,Fog,90
2013-10-26,55,50,45,50,47,45,100,89,77,30.36,30.31,30.19,20,15,8,17,7,,0.00,7,Rain,292
2013-10-27,57,52,46,48,45,35,93,79,44,30.17,30.02,29.97,20,14,8,17,10,24,0.00,4,Rain,294
2013-10-28,55,48,41,45,36,28,81,62,41,30.07,30.02,29.96,20,18,14,12,7,,0.00,0,,13
2013-10-29,55,44,33,37,34,30,87,72,44,30.04,30.00,29.98,20,17,15,8,5,,0.00,1,,83
2013-10-30,52,44,37,46,41,34,93,81,54,30.12,30.09,30.03,20,13,2,13,8,17,0.12,7,Rain,94
2013-10-31,51,48,46,50,48,46,100,94,88,30.26,30.16,30.08,15,9,2,12,7,,0.24,8,Rain,84